WB9WX Weather Reports


Display with metric or nautical units.
time (UTC)temp
F
wind
direction
speed
MPH
gust
MPH
rain 1hr
in
rain 24hr
in
rain mn
in
humidity
%
barometer
mb
20260506091522 0 0.0 0.0 0.00 0.00 0.00 1011.4
20260506091010 0 0.0 0.0 0.00 0.00 0.00 1011.3
20260506090507 0 0.0 0.0 0.00 0.00 0.00 1011.4
20260506090022 0 0.0 0.0 0.00 0.00 0.00 1011.4
20260506085505 0 0.0 0.0 0.00 0.00 0.00 1011.4
20260506085009 0 88 0.0 0.0 0.00 0.00 0.00 1011.3
20260506084521 37 88 0.0 0.0 0.00 0.00 0.00 75 1011.3
20260506084007 37 88 0.0 0.0 0.00 0.00 0.00 74 1011.3
20260506083508 37 88 0.0 0.0 0.00 0.00 0.00 73 1011.4
20260506083023 37 88 0.0 0.0 0.00 0.00 0.00 71 1011.3
20260506082506 38 88 0.0 0.0 0.00 0.00 0.00 71 1011.2
20260506082003 38 88 0.0 0.0 0.00 0.00 0.00 72 1011.2
20260506081508 38 88 0.0 0.0 0.00 0.00 0.00 72 1011.1
20260506081003 38 88 0.0 0.0 0.00 0.00 0.00 71 1011.1
20260506080507 38 88 0.0 0.0 0.00 0.00 0.00 71 1011.1
20260506073509 40 88 0.0 0.0 0.00 0.00 0.00 66 1011.0
20260506073020 40 88 0.0 0.0 0.00 0.00 0.00 67 1010.9
20260506072513 40 88 0.0 0.0 0.00 0.00 0.00 67 1010.9
20260506072006 40 88 0.0 0.0 0.00 0.00 0.00 69 1010.9
20260506071526 40 88 0.0 0.0 0.00 0.00 0.00 67 1010.9
20260506071010 40 88 0.0 0.0 0.00 0.00 0.00 66 1010.8
20260506070503 41 88 0.0 0.0 0.00 0.00 0.00 64 1010.8
20260506062511 43 88 0.0 0.0 0.00 0.00 0.00 61 1011.0
20260506062009 43 88 0.0 0.0 0.00 0.00 0.00 59 1011.1
20260506061522 43 88 0.0 0.0 0.00 0.00 0.00 59 1011.1
20260506061011 43 88 0.0 2.0 0.00 0.00 0.00 59 1011.0
20260506060507 43 88 0.0 2.0 0.00 0.00 0.00 58 1010.9
20260506051009 46 15 1.0 6.0 0.00 0.00 0.00 52 1011.0
20260506050512 46 14 1.0 5.0 0.00 0.00 0.00 51 1010.9
20260506045007 46 19 1.0 5.0 0.00 0.00 0.00 50 1011.0
20260506044528 47 46 2.0 4.0 0.00 0.00 0.00 49 1011.0
20260506044006 47 66 1.0 5.0 0.00 0.00 0.00 48 1010.9
20260506043503 47 37 1.0 5.0 0.00 0.00 0.00 47 1010.8
20260506043012 48 59 1.0 5.0 0.00 0.00 0.00 46 1010.8
20260506042506 48 41 2.0 7.0 0.00 0.00 0.00 45 1010.7
20260506042012 48 21 3.0 8.0 0.00 0.00 0.00 45 1010.7
20260506041526 48 349 2.0 8.0 0.00 0.00 0.00 45 1010.6
20260506041004 48 352 2.0 7.0 0.00 0.00 0.00 45 1010.5
20260506040510 48 349 3.0 7.0 0.00 0.00 0.00 46 1010.5
20260506040025 48 1 1.0 3.0 0.00 0.00 0.00 49 1010.5
20260506035508 48 359 0.0 2.0 0.00 0.00 0.00 50 1010.4
20260506035010 48 359 1.0 2.0 0.00 0.00 0.00 47 1010.2
20260506034526 48 359 0.0 3.0 0.00 0.00 0.00 45 1010.0
20260506034004 49 1 1.0 3.0 0.00 0.00 0.00 44 1009.9
20260506033503 49 342 2.0 3.0 0.00 0.00 0.00 44 1009.9
20260506033009 49 1 1.0 3.0 0.00 0.00 0.00 45 1009.9
20260506032504 49 13 1.0 5.0 0.00 0.00 0.00 43 1009.9
20260506032007 49 352 1.0 5.0 0.00 0.00 0.00 43 1009.9
20260506031519 49 1 0.0 5.0 0.00 0.00 0.00 42 1010.0
20260506031006 50 6 0.0 5.0 0.00 0.00 0.00 42 1009.9
20260506030508 49 18 1.0 5.0 0.00 0.00 0.00 42 1009.9
20260506030025 50 359 0.0 5.0 0.00 0.00 0.00 44 1010.0
20260506025505 50 359 1.0 5.0 0.00 0.00 0.00 43 1010.0
20260506025009 50 307 2.0 5.0 0.00 0.00 0.00 44 1009.9
20260506024505 50 325 0.0 4.0 0.00 0.00 0.00 43 1009.8
20260506024004 50 20 1.0 4.0 0.00 0.00 0.00 45 1009.7
20260506023505 50 1 1.0 8.0 0.00 0.00 0.00 43 1009.7
20260506023007 50 10 2.0 8.0 0.00 0.00 0.00 44 1009.7
20260506022503 50 41 2.0 7.0 0.00 0.00 0.00 45 1009.7
20260506022004 50 360 1.0 5.0 0.00 0.00 0.00 44 1009.7
20260506021512 50 353 1.0 5.0 0.00 0.00 0.00 46 1009.6
20260506021008 50 6 2.0 5.0 0.00 0.00 0.00 47 1009.6
20260506020510 50 360 1.0 4.0 0.00 0.00 0.00 48 1009.4
20260506020022 49 14 1.0 5.0 0.00 0.00 0.00 53 1009.3
20260506015507 48 326 2.0 5.0 0.00 0.00 0.00 56 1009.1
20260506015006 48 293 0.0 0.0 0.00 0.00 0.00 55 1009.1
20260506014532 48 293 0.0 0.0 0.00 0.00 0.00 54 1009.0
20260506014009 48 293 0.0 0.0 0.00 0.00 0.00 54 1008.8
20260506013503 48 293 0.0 0.0 0.00 0.00 0.00 53 1008.8
20260506013012 48 293 0.0 0.0 0.00 0.00 0.00 52 1008.8
20260506012506 49 293 0.0 0.0 0.00 0.00 0.00 52 1008.7
20260506012001 49 293 0.0 0.0 0.00 0.00 0.00 51 1008.6
20260506011512 49 292 0.0 0.0 0.00 0.00 0.00 50 1008.5
20260506011005 49 292 0.0 0.0 0.00 0.00 0.00 50 1008.3
20260506010505 49 292 0.0 0.0 0.00 0.00 0.00 48 1008.2
20260506010023 50 292 0.0 0.0 0.00 0.00 0.00 48 1008.2
20260506005507 50 292 0.0 0.0 0.00 0.00 0.00 47 1008.1
20260506005010 51 292 0.0 0.0 0.00 0.00 0.00 44 1008.2
20260506004533 51 293 0.0 0.0 0.00 0.00 0.00 43 1008.1
20260506004007 51 293 0.0 2.0 0.00 0.00 0.00 42 1008.0
20260506003510 52 288 0.0 2.0 0.00 0.00 0.00 44 1008.0
20260506003024 52 302 1.0 3.0 0.00 0.00 0.00 42 1008.1
20260506002503 53 291 1.0 3.0 0.00 0.00 0.00 41 1008.0
20260506002003 53 295 1.0 3.0 0.00 0.00 0.00 39 1008.0
20260506001509 53 285 1.0 6.0 0.00 0.00 0.00 40 1008.0
20260506001004 53 288 2.0 6.0 0.00 0.00 0.00 37 1007.9
20260506000503 53 287 3.0 6.0 0.00 0.00 0.00 36 1007.9
20260506000019 54 287 3.0 6.0 0.00 0.00 0.00 37 1007.9
20260505235511 54 307 2.0 8.0 0.00 0.00 0.00 36 1007.9
20260505235006 54 282 4.0 12.0 0.00 0.00 0.00 35 1008.0
20260505234520 54 291 3.0 12.0 0.00 0.00 0.00 37 1008.0
20260505234006 54 319 5.0 12.0 0.00 0.00 0.00 34 1008.0
20260505233511 54 275 4.0 10.0 0.00 0.00 0.00 36 1008.0
20260505233023 54 302 4.0 9.0 0.00 0.00 0.00 37 1008.0
20260505232509 55 279 2.0 6.0 0.00 0.00 0.00 38 1008.0
20260505232007 55 359 3.0 6.0 0.00 0.00 0.00 38 1007.9
20260505231506 55 323 3.0 8.0 0.00 0.00 0.00 38 1008.0
20260505231004 55 338 3.0 12.0 0.00 0.00 0.00 38 1008.0
20260505230503 55 259 6.0 12.0 0.00 0.00 0.00 35 1008.1
20260505230015 55 266 3.0 10.0 0.00 0.00 0.00 37 1008.1
20260505225503 55 300 2.0 6.0 0.00 0.00 0.00 38 1008.1
20260505225007 55 321 2.0 10.0 0.00 0.00 0.00 36 1008.1
20260505224524 55 315 5.0 10.0 0.00 0.00 0.00 35 1008.1
20260505224007 55 281 5.0 10.0 0.00 0.00 0.00 33 1008.1
20260505223509 55 300 5.0 10.0 0.00 0.00 0.00 36 1008.1
20260505223036 55 295 5.0 9.0 0.00 0.00 0.00 36 1008.1
20260505222507 55 335 5.0 9.0 0.00 0.00 0.00 35 1008.1
20260505222010 55 290 1.0 9.0 0.00 0.00 0.00 37 1008.0
20260505221525 55 266 2.0 9.0 0.00 0.00 0.00 34 1008.1
20260505221007 55 297 6.0 10.0 0.00 0.00 0.00 34 1008.1
20260505220508 55 302 4.0 10.0 0.00 0.00 0.00 35 1008.1
20260505220023 55 290 3.0 7.0 0.00 0.00 0.00 38 1008.2
20260505215505 55 297 2.0 7.0 0.00 0.00 0.00 38 1008.2
20260505215009 55 318 3.0 10.0 0.00 0.00 0.00 37 1008.1
20260505214524 55 297 4.0 15.0 0.00 0.00 0.00 36 1008.1
20260505214007 55 271 6.0 15.0 0.00 0.00 0.00 35 1008.1
20260505213507 56 264 6.0 12.0 0.00 0.00 0.00 33 1008.2
20260505213025 56 297 4.0 11.0 0.00 0.00 0.00 34 1008.1
20260505212505 56 261 5.0 11.0 0.00 0.00 0.00 35 1008.2
20260505212002 56 284 4.0 14.0 0.00 0.00 0.00 38 1008.1
20260505211504 55 352 5.0 14.0 0.00 0.00 0.00 32 1008.1
20260505211004 55 288 4.0 10.0 0.00 0.00 0.00 35 1008.2
20260505210503 55 299 4.0 10.0 0.00 0.00 0.00 33 1008.2
20260505210009 55 277 5.0 12.0 0.00 0.00 0.00 33 1008.2
20260505205507 55 286 5.0 12.0 0.00 0.00 0.00 34 1008.3
20260505205006 55 291 6.0 12.0 0.00 0.00 0.00 33 1008.1
20260505204523 55 352 7.0 12.0 0.00 0.00 0.00 33 1008.1
20260505204005 55 273 6.0 12.0 0.00 0.00 0.00 33 1008.3
20260505203505 55 276 4.0 14.0 0.00 0.00 0.00 34 1008.3
20260505203016 55 327 7.0 14.0 0.00 0.00 0.00 31 1008.5
20260505202507 56 341 4.0 12.0 0.00 0.00 0.00 35 1008.3
20260505202006 56 324 5.0 16.0 0.00 0.00 0.00 36 1008.3
20260505201540 56 311 4.0 16.0 0.00 0.00 0.00 33 1008.3
20260505201003 56 300 4.0 13.0 0.00 0.00 0.00 32 1008.4
20260505200506 56 271 4.0 9.0 0.00 0.00 0.00 32 1008.3
20260505200009 56 334 3.0 16.0 0.00 0.00 0.00 30 1008.4
20260505195504 56 293 8.0 16.0 0.00 0.00 0.00 32 1008.5
20260505195003 56 291 4.0 11.0 0.00 0.00 0.00 31 1008.5
20260505194510 56 318 4.0 14.0 0.00 0.00 0.00 30 1008.5
20260505194005 56 295 8.0 14.0 0.00 0.00 0.00 29 1008.5
20260505193503 56 315 5.0 12.0 0.00 0.00 0.00 33 1008.5
20260505193035 56 277 6.0 12.0 0.00 0.00 0.00 29 1008.6
20260505192506 56 309 5.0 15.0 0.00 0.00 0.00 30 1008.7
20260505192005 56 333 6.0 15.0 0.00 0.00 0.00 29 1008.7
20260505191519 57 305 5.0 11.0 0.00 0.00 0.00 31 1008.7
20260505191006 57 315 3.0 11.0 0.00 0.00 0.00 33 1008.7
20260505190506 55 307 5.0 10.0 0.00 0.00 0.00 33 1008.7
20260505190013 55 280 5.0 11.0 0.00 0.00 0.00 34 1008.7
20260505185506 55 328 4.0 14.0 0.00 0.00 0.00 34 1008.7
20260505185004 54 256 7.0 15.0 0.00 0.00 0.00 32 1008.6
20260505184510 55 287 8.0 15.0 0.00 0.00 0.00 33 1008.7
20260505184004 55 306 7.0 16.0 0.00 0.00 0.00 36 1008.8
20260505183503 55 298 8.0 16.0 0.00 0.00 0.00 33 1008.6
20260505183022 56 311 6.0 16.0 0.00 0.00 0.00 38 1008.5
20260505182503 55 274 6.0 14.0 0.00 0.00 0.00 32 1008.6
20260505182007 56 305 6.0 16.0 0.00 0.00 0.00 35 1008.6
20260505181521 55 288 6.0 16.0 0.00 0.00 0.00 34 1008.5
20260505181014 55 333 8.0 14.0 0.00 0.00 0.00 32 1008.3
20260505180507 55 303 7.0 14.0 0.00 0.00 0.00 33 1008.3
20260505180033 54 295 8.0 14.0 0.00 0.00 0.00 32 1008.3
20260505175510 54 304 6.0 15.0 0.00 0.00 0.00 35 1008.3
20260505175008 54 309 7.0 13.0 0.00 0.00 0.00 34 1008.1
20260505174508 54 321 5.0 15.0 0.00 0.00 0.00 38 1008.2
20260505174004 54 297 5.0 15.0 0.00 0.00 0.00 33 1008.3
20260505173504 54 299 3.0 13.0 0.00 0.00 0.00 37 1008.3
20260505173014 53 303 4.0 13.0 0.00 0.00 0.00 36 1008.3
20260505172503 53 271 6.0 14.0 0.00 0.00 0.00 35 1008.2
20260505172003 54 282 6.0 14.0 0.00 0.00 0.00 34 1008.3
20260505171526 53 291 8.0 11.0 0.00 0.00 0.00 34 1008.3
20260505171007 53 297 5.0 16.0 0.00 0.00 0.00 35 1008.4
20260505170509 54 328 7.0 16.0 0.00 0.00 0.00 37 1008.4
20260505170021 54 279 5.0 15.0 0.00 0.00 0.00 38 1008.3
20260505165509 54 293 4.0 15.0 0.00 0.00 0.00 37 1008.3
20260505165006 54 309 7.0 13.0 0.00 0.00 0.00 37 1008.2
20260505164533 54 256 3.0 12.0 0.00 0.00 0.00 38 1008.1
20260505164009 54 297 6.0 12.0 0.00 0.00 0.00 37 1007.9
20260505163504 54 334 5.0 11.0 0.00 0.00 0.00 37 1008.0
20260505163009 54 278 4.0 12.0 0.00 0.00 0.00 37 1008.1
20260505162502 53 271 5.0 12.0 0.00 0.00 0.00 38 1008.1
20260505162007 53 290 5.0 11.0 0.00 0.00 0.00 38 1008.1
20260505161516 53 317 5.0 12.0 0.00 0.00 0.00 38 1008.2
20260505161004 53 303 6.0 12.0 0.00 0.00 0.00 38 1008.1
20260505160504 53 281 5.0 14.0 0.00 0.00 0.00 36 1008.2
20260505153032 51 287 4.0 9.0 0.00 0.00 0.00 42 1008.2
20260505152503 51 287 4.0 8.0 0.00 0.00 0.00 45 1008.2
20260505152006 50 276 3.0 9.0 0.00 0.00 0.00 42 1008.3
20260505151513 51 279 5.0 11.0 0.00 0.00 0.00 42 1008.3
20260505151007 50 309 4.0 10.0 0.00 0.00 0.00 45 1008.3
20260505150504 49 261 2.0 9.0 0.00 0.00 0.00 45 1008.3
20260505140512 49 311 5.0 11.0 0.00 0.00 0.00 45 1008.5
20260505125009 47 294 3.0 8.0 0.00 0.00 0.00 50 1008.2
20260505124527 47 301 3.0 8.0 0.00 0.00 0.00 52 1008.3
20260505124011 47 295 5.0 7.0 0.00 0.00 0.00 52 1008.2
20260505123514 47 308 2.0 7.0 0.00 0.00 0.00 53 1008.3
20260505123036 47 291 2.0 7.0 0.00 0.00 0.00 52 1008.4
20260505122513 47 296 3.0 6.0 0.00 0.00 0.00 53 1008.4
20260505122001 47 283 2.0 6.0 0.00 0.00 0.00 51 1008.6
20260505121507 47 268 3.0 7.0 0.00 0.00 0.00 53 1008.4
20260505121005 47 307 2.0 8.0 0.00 0.00 0.00 51 1008.3
20260505120508 47 292 3.0 8.0 0.00 0.00 0.00 50 1008.5
20260505120013 47 320 2.0 5.0 0.00 0.00 0.00 51 1008.2
20260505115507 47 294 2.0 6.0 0.00 0.00 0.00 51 1008.3
20260505115005 0 310 2.0 0.0 0.00 0.00 0.00 1007.9
20260505114536 0 0.0 0.0 0.00 0.00 0.00 1007.7
20260505114010 0 0.0 0.0 0.00 0.00 0.00 1007.5
20260505113507 0 0.0 0.0 0.00 0.00 0.00 1006.8
20260505113026 0 0.0 0.0 0.00 0.00 0.00 1008.1
20260505112511 0 0.0 0.0 0.00 0.00 0.00 1006.7
20260505112010 0 0.0 0.0 0.00 0.00 0.00 1006.0
20260505111528 0 0.0 0.0 0.00 0.00 0.00 1006.3
20260505111009 0 0.0 0.0 0.00 0.00 0.00 1006.4
20260505110511 0 0.0 0.0 0.00 0.00 0.00 1006.6
20260505102011 0 0.0 0.0 0.00 0.00 0.00 1006.3
20260505101526 0 0.0 0.0 0.00 0.00 0.00 1006.2
20260505101010 0 0.0 0.0 0.00 0.00 0.00 1006.1
20260505100509 0 0.0 0.0 0.00 0.00 0.00 1005.9
20260505100031 0 0.0 0.0 0.00 0.00 0.00 1005.8
20260505095509 0 0.0 0.0 0.00 0.00 0.00 1005.8
20260505095010 0 0.0 0.0 0.00 0.00 0.00 1005.9
20260505094530 0 0.0 0.0 0.00 0.00 0.00 1005.7
20260505094013 0 0.0 0.0 0.00 0.00 0.00 1005.7
20260505093511 0 0.0 0.0 0.00 0.00 0.00 1005.8
20260505093037 0 0.0 0.0 0.00 0.00 0.00 1005.9
20260505092511 0 0.0 0.0 0.00 0.00 0.00 1005.8
20260505092013 0 0.0 0.0 0.00 0.00 0.00 1006.0
20260505091538 0 0.0 0.0 0.00 0.00 0.00 1005.7